| time (UTC) | temp F | wind direction | speed MPH | gust MPH | rain 1hr in | rain 24hr in | rain mn in | humidity % | barometer mb |
| 20260508122011 | 44 | 212 | 3.0 | 10.0 | 0.00 | 0.00 | 0.00 | 69 | 1011.1 |
| 20260508121520 | 43 | 167 | 5.0 | 9.0 | 0.00 | 0.00 | 0.00 | 71 | 1011.0 |
| 20260508121012 | 43 | 194 | 4.0 | 13.0 | 0.00 | 0.00 | 0.00 | 74 | 1011.0 |
| 20260508120508 | 43 | 198 | 7.0 | 13.0 | 0.00 | 0.00 | 0.00 | 73 | 1010.9 |
| 20260508120024 | 42 | 183 | 5.0 | 10.0 | 0.00 | 0.00 | 0.00 | 77 | 1011.0 |
| 20260508115515 | 42 | 153 | 5.0 | 8.0 | 0.00 | 0.00 | 0.00 | 77 | 1011.1 |
| 20260508115011 | 42 | 201 | 5.0 | 10.0 | 0.00 | 0.00 | 0.00 | 79 | 1011.0 |
| 20260508114524 | 41 | 190 | 4.0 | 10.0 | 0.00 | 0.00 | 0.00 | 79 | 1011.0 |
| 20260508114014 | 42 | 196 | 5.0 | 10.0 | 0.00 | 0.00 | 0.00 | 78 | 1011.0 |
| 20260508113510 | 42 | 200 | 6.0 | 10.0 | 0.00 | 0.00 | 0.00 | 78 | 1011.0 |
| 20260508113026 | 42 | 212 | 4.0 | 8.0 | 0.00 | 0.00 | 0.00 | 80 | 1011.0 |
| 20260508112512 | 41 | 178 | 4.0 | 8.0 | 0.00 | 0.00 | 0.00 | 82 | 1010.9 |
| 20260508112009 | 41 | 157 | 5.0 | 8.0 | 0.00 | 0.00 | 0.00 | 84 | 1010.8 |
| 20260508111520 | 40 | 163 | 5.0 | 7.0 | 0.00 | 0.00 | 0.00 | 86 | 1010.8 |
| 20260508111011 | 39 | 175 | 4.0 | 8.0 | 0.00 | 0.00 | 0.00 | 87 | 1010.7 |
| 20260508110507 | 38 | 182 | 4.0 | 9.0 | 0.00 | 0.00 | 0.00 | 89 | 1010.7 |
| 20260508110029 | 37 | 236 | 3.0 | 9.0 | 0.00 | 0.00 | 0.00 | 89 | 1010.7 |
| 20260508105510 | 37 | 183 | 5.0 | 8.0 | 0.00 | 0.00 | 0.00 | 90 | 1010.6 |
| 20260508105009 | 36 | 202 | 5.0 | 8.0 | 0.00 | 0.00 | 0.00 | 90 | 1010.7 |
| 20260508104524 | 36 | 186 | 4.0 | 7.0 | 0.00 | 0.00 | 0.00 | 90 | 1010.7 |
| 20260508104002 | 36 | 212 | 2.0 | 7.0 | 0.00 | 0.00 | 0.00 | 90 | 1010.7 |
| 20260508103503 | 36 | 207 | 4.0 | 7.0 | 0.00 | 0.00 | 0.00 | 91 | 1010.7 |
| 20260508103003 | 35 | 221 | 4.0 | 7.0 | 0.00 | 0.00 | 0.00 | 91 | 1010.6 |
| 20260508102501 | 35 | 196 | 3.0 | 6.0 | 0.00 | 0.00 | 0.00 | 91 | 1010.4 |
| 20260508102003 | 35 | 207 | 3.0 | 5.0 | 0.00 | 0.00 | 0.00 | 91 | 1010.4 |
| 20260508101513 | 35 | 212 | 1.0 | 5.0 | 0.00 | 0.00 | 0.00 | 91 | 1010.3 |
| 20260508101002 | 34 | 205 | 2.0 | 5.0 | 0.00 | 0.00 | 0.00 | 91 | 1010.3 |
| 20260508100502 | 34 | 184 | 3.0 | 7.0 | 0.00 | 0.00 | 0.00 | 91 | 1010.3 |
| 20260508100005 | 34 | 224 | 4.0 | 9.0 | 0.00 | 0.00 | 0.00 | 91 | 1010.3 |
| 20260508095503 | 34 | 210 | 5.0 | 9.0 | 0.00 | 0.00 | 0.00 | 91 | 1010.4 |
| 20260508095003 | 34 | 200 | 5.0 | 9.0 | 0.00 | 0.00 | 0.00 | 91 | 1010.3 |
| 20260508094502 | 33 | 216 | 4.0 | 6.0 | 0.00 | 0.00 | 0.00 | 91 | 1010.3 |
| 20260508094002 | 33 | 221 | 3.0 | 5.0 | 0.00 | 0.00 | 0.00 | 91 | 1010.3 |
| 20260508093502 | 33 | 218 | 2.0 | 5.0 | 0.00 | 0.00 | 0.00 | 91 | 1010.3 |
| 20260508093013 | 33 | 243 | 3.0 | 5.0 | 0.00 | 0.00 | 0.00 | 91 | 1010.2 |
| 20260508092501 | 33 | 246 | 2.0 | 5.0 | 0.00 | 0.00 | 0.00 | 91 | 1010.3 |
| 20260508092002 | 33 | 247 | 1.0 | 3.0 | 0.00 | 0.00 | 0.00 | 91 | 1010.2 |
| 20260508091503 | 33 | 265 | 1.0 | 3.0 | 0.00 | 0.00 | 0.00 | 91 | 1010.2 |
| 20260508091006 | 34 | 232 | 2.0 | 3.0 | 0.00 | 0.00 | 0.00 | 91 | 1010.2 |
| 20260508090504 | 34 | 238 | 1.0 | 3.0 | 0.00 | 0.00 | 0.00 | 91 | 1010.2 |
| 20260508090011 | 33 | 238 | 2.0 | 3.0 | 0.00 | 0.00 | 0.00 | 91 | 1010.2 |
| 20260508085503 | 33 | 215 | 2.0 | 3.0 | 0.00 | 0.00 | 0.00 | 91 | 1010.2 |
| 20260508085003 | 33 | 254 | 2.0 | 3.0 | 0.00 | 0.00 | 0.00 | 91 | 1010.1 |
| 20260508084504 | 33 | 247 | 1.0 | 2.0 | 0.00 | 0.00 | 0.00 | 91 | 1010.0 |
| 20260508084003 | 33 | 137 | 0.0 | 1.0 | 0.00 | 0.00 | 0.00 | 91 | 1009.9 |
| 20260508083502 | 33 | 146 | 0.0 | 1.0 | 0.00 | 0.00 | 0.00 | 91 | 1009.9 |
| 20260508083002 | 33 | 51 | 0.0 | 2.0 | 0.00 | 0.00 | 0.00 | 91 | 1009.8 |
| 20260508082502 | 33 | 178 | 0.0 | 2.0 | 0.00 | 0.00 | 0.00 | 91 | 1009.7 |
| 20260508082002 | 34 | 221 | 0.0 | 3.0 | 0.00 | 0.00 | 0.00 | 91 | 1009.8 |
| 20260508081504 | 34 | 254 | 1.0 | 3.0 | 0.00 | 0.00 | 0.00 | 91 | 1009.8 |
| 20260508081003 | 33 | 265 | 1.0 | 3.0 | 0.00 | 0.00 | 0.00 | 91 | 1009.8 |
| 20260508080505 | 33 | 265 | 1.0 | 3.0 | 0.00 | 0.00 | 0.00 | 91 | 1009.9 |
| 20260508080004 | 33 | 232 | 1.0 | 3.0 | 0.00 | 0.00 | 0.00 | 91 | 1009.9 |
| 20260508075507 | 33 | 232 | 1.0 | 3.0 | 0.00 | 0.00 | 0.00 | 91 | 1010.0 |
| 20260508075003 | 33 | 265 | 0.0 | 4.0 | 0.00 | 0.00 | 0.00 | 91 | 1009.8 |
| 20260508074512 | 33 | 221 | 2.0 | 4.0 | 0.00 | 0.00 | 0.00 | 91 | 1009.7 |
| 20260508074003 | 33 | 212 | 2.0 | 3.0 | 0.00 | 0.00 | 0.00 | 90 | 1009.7 |
| 20260508073507 | 33 | 196 | 1.0 | 3.0 | 0.00 | 0.00 | 0.00 | 91 | 1009.6 |
| 20260508073006 | 33 | 234 | 1.0 | 3.0 | 0.00 | 0.00 | 0.00 | 91 | 1009.5 |
| 20260508072502 | 33 | 254 | 1.0 | 3.0 | 0.00 | 0.00 | 0.00 | 90 | 1009.4 |
| 20260508072003 | 33 | 291 | 1.0 | 3.0 | 0.00 | 0.00 | 0.00 | 90 | 1009.3 |
| 20260508071505 | 33 | 265 | 1.0 | 3.0 | 0.00 | 0.00 | 0.00 | 90 | 1009.2 |
| 20260508071002 | 33 | 247 | 1.0 | 2.0 | 0.00 | 0.00 | 0.00 | 90 | 1009.2 |
| 20260508070503 | 33 | 221 | 0.0 | 2.0 | 0.00 | 0.00 | 0.00 | 90 | 1009.2 |
| 20260508070005 | 33 | 93 | 0.0 | 2.0 | 0.00 | 0.00 | 0.00 | 90 | 1009.2 |
| 20260508065503 | 34 | 265 | 0.0 | 2.0 | 0.00 | 0.00 | 0.00 | 89 | 1009.3 |
| 20260508065004 | 33 | 221 | 0.0 | 2.0 | 0.00 | 0.00 | 0.00 | 89 | 1009.2 |
| 20260508064511 | 33 | 9 | 1.0 | 2.0 | 0.00 | 0.00 | 0.00 | 89 | 1009.1 |
| 20260508064003 | 34 | 334 | 1.0 | 2.0 | 0.00 | 0.00 | 0.00 | 89 | 1009.1 |
| 20260508063506 | 34 | 265 | 1.0 | 2.0 | 0.00 | 0.00 | 0.00 | 89 | 1009.2 |
| 20260508063005 | 34 | 309 | 0.0 | 1.0 | 0.00 | 0.00 | 0.00 | 89 | 1009.1 |
| 20260508062503 | 34 | 205 | 0.0 | 2.0 | 0.00 | 0.00 | 0.00 | 89 | 1009.2 |
| 20260508062003 | 34 | 178 | 0.0 | 2.0 | 0.00 | 0.00 | 0.00 | 89 | 1009.2 |
| 20260508061507 | 34 | 265 | 1.0 | 2.0 | 0.00 | 0.00 | 0.00 | 88 | 1009.2 |
| 20260508061006 | 35 | 51 | 1.0 | 3.0 | 0.00 | 0.00 | 0.00 | 88 | 1009.2 |
| 20260508060502 | 35 | 291 | 1.0 | 3.0 | 0.00 | 0.00 | 0.00 | 88 | 1009.2 |
| 20260508060004 | 35 | 236 | 2.0 | 3.0 | 0.00 | 0.00 | 0.00 | 88 | 1009.2 |
| 20260508055504 | 35 | 200 | 1.0 | 3.0 | 0.00 | 0.00 | 0.00 | 88 | 1009.3 |
| 20260508055006 | 35 | 217 | 2.0 | 3.0 | 0.00 | 0.00 | 0.00 | 87 | 1009.3 |
| 20260508054509 | 35 | 234 | 2.0 | 3.0 | 0.00 | 0.00 | 0.00 | 87 | 1009.3 |
| 20260508054003 | 36 | 221 | 1.0 | 3.0 | 0.00 | 0.00 | 0.00 | 87 | 1009.3 |
| 20260508053504 | 36 | 247 | 1.0 | 3.0 | 0.00 | 0.00 | 0.00 | 87 | 1009.3 |
| 20260508053007 | 36 | 255 | 2.0 | 3.0 | 0.00 | 0.00 | 0.00 | 87 | 1009.2 |
| 20260508052504 | 36 | 265 | 1.0 | 2.0 | 0.00 | 0.00 | 0.00 | 87 | 1009.3 |
| 20260508052004 | 36 | 238 | 1.0 | 2.0 | 0.00 | 0.00 | 0.00 | 87 | 1009.3 |
| 20260508051509 | 36 | 232 | 0.0 | 1.0 | 0.00 | 0.00 | 0.00 | 86 | 1009.4 |
| 20260508051003 | 36 | 221 | 0.0 | 1.0 | 0.00 | 0.00 | 0.00 | 86 | 1009.4 |
| 20260508050503 | 36 | 93 | 0.0 | 2.0 | 0.00 | 0.00 | 0.00 | 86 | 1009.5 |
| 20260508050006 | 37 | 309 | 0.0 | 2.0 | 0.00 | 0.00 | 0.00 | 86 | 1009.6 |
| 20260508045502 | 36 | 291 | 1.0 | 2.0 | 0.00 | 0.00 | 0.00 | 86 | 1009.5 |
| 20260508045002 | 37 | 9 | 0.0 | 2.0 | 0.00 | 0.00 | 0.00 | 85 | 1009.5 |
| 20260508044514 | 37 | 309 | 0.0 | 3.0 | 0.00 | 0.00 | 0.00 | 85 | 1009.6 |
| 20260508044004 | 37 | 238 | 1.0 | 4.0 | 0.00 | 0.00 | 0.00 | 85 | 1009.6 |
| 20260508043505 | 37 | 238 | 2.0 | 4.0 | 0.00 | 0.00 | 0.00 | 85 | 1009.7 |
| 20260508043007 | 37 | 234 | 3.0 | 4.0 | 0.00 | 0.00 | 0.00 | 85 | 1009.7 |
| 20260508042507 | 37 | 227 | 1.0 | 3.0 | 0.00 | 0.00 | 0.00 | 85 | 1009.7 |
| 20260508042006 | 37 | 190 | 1.0 | 3.0 | 0.00 | 0.00 | 0.00 | 85 | 1009.7 |
| 20260508041509 | 38 | 205 | 0.0 | 3.0 | 0.00 | 0.00 | 0.00 | 84 | 1009.7 |
| 20260508041004 | 38 | 205 | 1.0 | 3.0 | 0.00 | 0.00 | 0.00 | 84 | 1009.8 |
| 20260508040507 | 37 | 221 | 0.0 | 2.0 | 0.00 | 0.00 | 0.00 | 82 | 1009.7 |
| 20260508040013 | 38 | 265 | 1.0 | 2.0 | 0.00 | 0.00 | 0.00 | 83 | 1009.7 |
| 20260508035505 | 38 | 265 | 0.0 | 3.0 | 0.00 | 0.00 | 0.00 | 82 | 1009.7 |
| 20260508035003 | 38 | 265 | 1.0 | 3.0 | 0.00 | 0.00 | 0.00 | 82 | 1009.7 |
| 20260508034517 | 38 | 255 | 1.0 | 3.0 | 0.00 | 0.00 | 0.00 | 82 | 1009.7 |
| 20260508034004 | 38 | 238 | 1.0 | 3.0 | 0.00 | 0.00 | 0.00 | 81 | 1009.7 |
| 20260508033504 | 38 | 243 | 0.0 | 2.0 | 0.00 | 0.00 | 0.00 | 82 | 1009.7 |
| 20260508033018 | 39 | 238 | 0.0 | 2.0 | 0.00 | 0.00 | 0.00 | 82 | 1009.7 |
| 20260508032504 | 39 | 221 | 1.0 | 2.0 | 0.00 | 0.00 | 0.00 | 82 | 1009.7 |
| 20260508032006 | 39 | 221 | 1.0 | 2.0 | 0.00 | 0.00 | 0.00 | 81 | 1009.7 |
| 20260508031512 | 39 | 212 | 0.0 | 2.0 | 0.00 | 0.00 | 0.00 | 82 | 1009.7 |
| 20260508031002 | 40 | 205 | 0.0 | 2.0 | 0.00 | 0.00 | 0.00 | 81 | 1009.6 |
| 20260508030503 | 40 | 238 | 0.0 | 2.0 | 0.00 | 0.00 | 0.00 | 80 | 1009.6 |
| 20260508030014 | 40 | 205 | 1.0 | 3.0 | 0.00 | 0.00 | 0.00 | 79 | 1009.6 |
| 20260508025506 | 40 | 200 | 1.0 | 3.0 | 0.00 | 0.00 | 0.00 | 79 | 1009.5 |
| 20260508025003 | 40 | 212 | 0.0 | 3.0 | 0.00 | 0.00 | 0.00 | 79 | 1009.6 |
| 20260508024518 | 40 | 255 | 1.0 | 3.0 | 0.00 | 0.00 | 0.00 | 79 | 1009.6 |
| 20260508024003 | 40 | 275 | 1.0 | 3.0 | 0.00 | 0.00 | 0.00 | 78 | 1009.5 |
| 20260508023506 | 40 | 250 | 1.0 | 4.0 | 0.00 | 0.00 | 0.00 | 78 | 1009.5 |
| 20260508023027 | 41 | 9 | 0.0 | 6.0 | 0.00 | 0.00 | 0.00 | 77 | 1009.6 |
| 20260508022504 | 41 | 51 | 1.0 | 6.0 | 0.00 | 0.00 | 0.00 | 77 | 1009.5 |
| 20260508022007 | 41 | 24 | 2.0 | 6.0 | 0.00 | 0.00 | 0.00 | 76 | 1009.5 |
| 20260508021516 | 42 | 38 | 1.0 | 6.0 | 0.00 | 0.00 | 0.00 | 76 | 1009.4 |
| 20260508021006 | 42 | 232 | 2.0 | 5.0 | 0.00 | 0.00 | 0.00 | 77 | 1009.3 |
| 20260508020505 | 42 | 247 | 1.0 | 3.0 | 0.00 | 0.01 | 0.00 | 75 | 1009.4 |
| 20260508020017 | 42 | 9 | 0.0 | 2.0 | 0.00 | 0.02 | 0.00 | 74 | 1009.3 |
| 20260508015503 | 42 | 265 | 0.0 | 5.0 | 0.00 | 0.02 | 0.00 | 72 | 1009.2 |
| 20260508015003 | 43 | 309 | 1.0 | 5.0 | 0.00 | 0.03 | 0.00 | 70 | 1009.1 |
| 20260508014515 | 44 | 232 | 3.0 | 5.0 | 0.00 | 0.03 | 0.00 | 71 | 1009.0 |
| 20260508014007 | 44 | 241 | 2.0 | 5.0 | 0.00 | 0.03 | 0.00 | 70 | 1009.0 |
| 20260508013508 | 44 | 238 | 3.0 | 4.0 | 0.00 | 0.03 | 0.00 | 69 | 1008.9 |
| 20260508013020 | 45 | 265 | 2.0 | 4.0 | 0.00 | 0.03 | 0.00 | 69 | 1008.8 |
| 20260508012506 | 45 | 250 | 3.0 | 5.0 | 0.00 | 0.03 | 0.00 | 69 | 1008.6 |
| 20260508012004 | 46 | 247 | 2.0 | 5.0 | 0.00 | 0.03 | 0.00 | 70 | 1008.6 |
| 20260508011510 | 46 | 238 | 1.0 | 4.0 | 0.00 | 0.03 | 0.00 | 67 | 1008.5 |
| 20260508011005 | 46 | 214 | 2.0 | 4.0 | 0.00 | 0.03 | 0.00 | 68 | 1008.5 |
| 20260508010503 | 46 | 205 | 1.0 | 4.0 | 0.00 | 0.03 | 0.00 | 66 | 1008.6 |
| 20260508010027 | 47 | 221 | 2.0 | 4.0 | 0.00 | 0.03 | 0.00 | 66 | 1008.5 |
| 20260508005506 | 47 | 227 | 2.0 | 4.0 | 0.00 | 0.03 | 0.00 | 67 | 1008.5 |
| 20260508005010 | 47 | 225 | 2.0 | 4.0 | 0.00 | 0.03 | 0.00 | 64 | 1008.5 |
| 20260508004523 | 48 | 243 | 2.0 | 4.0 | 0.00 | 0.03 | 0.00 | 66 | 1008.3 |
| 20260508004007 | 48 | 243 | 1.0 | 3.0 | 0.00 | 0.04 | 0.00 | 61 | 1008.2 |
| 20260508003510 | 48 | 265 | 1.0 | 3.0 | 0.00 | 0.04 | 0.00 | 58 | 1008.1 |
| 20260508003022 | 49 | 238 | 1.0 | 3.0 | 0.00 | 0.05 | 0.00 | 58 | 1008.0 |
| 20260508002508 | 49 | 273 | 2.0 | 4.0 | 0.00 | 0.05 | 0.00 | 56 | 1008.0 |
| 20260508002011 | 50 | 232 | 1.0 | 4.0 | 0.00 | 0.05 | 0.00 | 53 | 1008.0 |
| 20260508001529 | 50 | 193 | 1.0 | 3.0 | 0.00 | 0.05 | 0.00 | 56 | 1008.0 |
| 20260508001007 | 51 | 153 | 1.0 | 3.0 | 0.00 | 0.05 | 0.00 | 51 | 1008.0 |
| 20260508000505 | 51 | 196 | 0.0 | 3.0 | 0.00 | 0.06 | 0.00 | 49 | 1008.0 |
| 20260508000018 | 51 | 282 | 2.0 | 3.0 | 0.00 | 0.06 | 0.00 | 53 | 1008.0 |
| 20260507235509 | 52 | 265 | 0.0 | 3.0 | 0.00 | 0.07 | 0.00 | 43 | 1008.0 |
| 20260507235008 | 52 | 51 | 1.0 | 4.0 | 0.00 | 0.08 | 0.00 | 43 | 1007.9 |
| 20260507234519 | 53 | 254 | 1.0 | 6.0 | 0.00 | 0.09 | 0.00 | 45 | 1007.8 |
| 20260507234005 | 54 | 319 | 1.0 | 6.0 | 0.00 | 0.10 | 0.00 | 42 | 1007.6 |
| 20260507233508 | 54 | 32 | 2.0 | 11.0 | 0.00 | 0.11 | 0.00 | 41 | 1007.6 |
| 20260507233023 | 54 | 325 | 3.0 | 11.0 | 0.00 | 0.13 | 0.00 | 41 | 1007.6 |
| 20260507232507 | 54 | 279 | 4.0 | 12.0 | 0.00 | 0.14 | 0.00 | 40 | 1007.5 |
| 20260507232012 | 55 | 51 | 1.0 | 14.0 | 0.00 | 0.14 | 0.00 | 40 | 1007.5 |
| 20260507231522 | 55 | 341 | 8.0 | 21.0 | 0.00 | 0.14 | 0.00 | 38 | 1007.5 |
| 20260507231007 | 55 | 311 | 9.0 | 21.0 | 0.00 | 0.14 | 0.00 | 37 | 1007.5 |
| 20260507230506 | 55 | 18 | 4.0 | 10.0 | 0.00 | 0.15 | 0.00 | 38 | 1007.5 |
| 20260507230024 | 56 | 315 | 2.0 | 15.0 | 0.00 | 0.15 | 0.00 | 40 | 1007.5 |
| 20260507225506 | 56 | 39 | 5.0 | 15.0 | 0.00 | 0.15 | 0.00 | 39 | 1007.4 |
| 20260507225007 | 56 | 257 | 4.0 | 10.0 | 0.00 | 0.15 | 0.00 | 40 | 1007.5 |
| 20260507224516 | 56 | 311 | 2.0 | 16.0 | 0.00 | 0.15 | 0.00 | 43 | 1007.5 |
| 20260507224004 | 56 | 330 | 5.0 | 16.0 | 0.00 | 0.15 | 0.00 | 38 | 1007.6 |
| 20260507223505 | 56 | 314 | 2.0 | 15.0 | 0.00 | 0.16 | 0.00 | 42 | 1007.5 |
| 20260507223021 | 57 | 221 | 6.0 | 15.0 | 0.00 | 0.16 | 0.00 | 37 | 1007.5 |
| 20260507222504 | 57 | 295 | 4.0 | 17.0 | 0.00 | 0.17 | 0.00 | 40 | 1007.4 |
| 20260507222004 | 57 | 284 | 4.0 | 17.0 | 0.00 | 0.17 | 0.00 | 40 | 1007.4 |
| 20260507221505 | 57 | 243 | 9.0 | 17.0 | 0.00 | 0.17 | 0.00 | 40 | 1007.2 |
| 20260507221002 | 57 | 243 | 3.0 | 17.0 | 0.00 | 0.17 | 0.00 | 41 | 1007.4 |
| 20260507220504 | 57 | 314 | 5.0 | 17.0 | 0.00 | 0.17 | 0.00 | 38 | 1007.4 |
| 20260507220010 | 57 | 288 | 7.0 | 16.0 | 0.00 | 0.18 | 0.00 | 38 | 1007.4 |
| 20260507215507 | 58 | 305 | 4.0 | 15.0 | 0.00 | 0.18 | 0.00 | 40 | 1007.4 |
| 20260507215007 | 58 | 315 | 6.0 | 11.0 | 0.00 | 0.19 | 0.00 | 36 | 1007.3 |
| 20260507214510 | 58 | 309 | 3.0 | 11.0 | 0.00 | 0.20 | 0.00 | 40 | 1007.3 |
| 20260507214006 | 57 | 59 | 3.0 | 11.0 | 0.00 | 0.20 | 0.00 | 41 | 1007.3 |
| 20260507213506 | 57 | 9 | 2.0 | 10.0 | 0.00 | 0.21 | 0.00 | 38 | 1007.4 |
| 20260507213027 | 57 | 19 | 2.0 | 13.0 | 0.00 | 0.21 | 0.00 | 41 | 1007.4 |
| 20260507212506 | 57 | 19 | 6.0 | 16.0 | 0.00 | 0.21 | 0.00 | 39 | 1007.4 |
| 20260507212009 | 57 | 281 | 6.0 | 16.0 | 0.00 | 0.22 | 0.00 | 39 | 1007.3 |
| 20260507211520 | 57 | 330 | 4.0 | 21.0 | 0.00 | 0.22 | 0.00 | 40 | 1007.3 |
| 20260507211003 | 56 | 346 | 8.0 | 21.0 | 0.00 | 0.22 | 0.00 | 39 | 1007.1 |
| 20260507210502 | 57 | 238 | 3.0 | 12.0 | 0.00 | 0.22 | 0.00 | 40 | 1007.2 |
| 20260507210017 | 57 | 340 | 5.0 | 9.0 | 0.00 | 0.23 | 0.00 | 43 | 1007.3 |
| 20260507205502 | 58 | 16 | 1.0 | 9.0 | 0.00 | 0.23 | 0.00 | 43 | 1007.3 |
| 20260507205004 | 58 | 335 | 3.0 | 9.0 | 0.00 | 0.23 | 0.00 | 45 | 1007.3 |
| 20260507204508 | 58 | 307 | 3.0 | 16.0 | 0.00 | 0.24 | 0.00 | 39 | 1007.3 |
| 20260507204003 | 58 | 275 | 6.0 | 18.0 | 0.00 | 0.24 | 0.00 | 39 | 1007.3 |
| 20260507203509 | 59 | 249 | 6.0 | 18.0 | 0.00 | 0.25 | 0.00 | 40 | 1007.3 |
| 20260507203018 | 59 | 334 | 4.0 | 17.0 | 0.00 | 0.25 | 0.00 | 40 | 1007.4 |
| 20260507202505 | 59 | 313 | 6.0 | 19.0 | 0.00 | 0.25 | 0.00 | 38 | 1007.4 |
| 20260507202010 | 59 | 261 | 5.0 | 24.0 | 0.00 | 0.25 | 0.00 | 37 | 1007.3 |
| 20260507201520 | 59 | 282 | 10.0 | 24.0 | 0.00 | 0.25 | 0.00 | 38 | 1007.2 |
| 20260507201007 | 59 | 319 | 4.0 | 17.0 | 0.00 | 0.26 | 0.00 | 39 | 1007.3 |
| 20260507200507 | 59 | 215 | 5.0 | 17.0 | 0.00 | 0.26 | 0.00 | 36 | 1007.2 |
| 20260507200044 | 60 | 294 | 10.0 | 17.0 | 0.00 | 0.27 | 0.00 | 35 | 1007.2 |
| 20260507195506 | 60 | 312 | 6.0 | 16.0 | 0.00 | 0.27 | 0.00 | 40 | 1007.3 |
| 20260507195005 | 59 | 31 | 5.0 | 14.0 | 0.00 | 0.27 | 0.00 | 41 | 1007.2 |
| 20260507194508 | 59 | 46 | 5.0 | 16.0 | 0.00 | 0.27 | 0.00 | 36 | 1007.2 |
| 20260507194003 | 58 | 325 | 5.0 | 20.0 | 0.00 | 0.28 | 0.00 | 42 | 1007.1 |
| 20260507193505 | 58 | 33 | 7.0 | 20.0 | 0.00 | 0.28 | 0.00 | 37 | 1007.3 |
| 20260507193020 | 59 | 280 | 6.0 | 19.0 | 0.00 | 0.28 | 0.00 | 42 | 1007.4 |
| 20260507192505 | 60 | 340 | 5.0 | 19.0 | 0.00 | 0.29 | 0.00 | 39 | 1007.2 |
| 20260507192006 | 58 | 40 | 8.0 | 23.0 | 0.00 | 0.29 | 0.00 | 36 | 1007.4 |
| 20260507191525 | 59 | 15 | 12.0 | 23.0 | 0.00 | 0.30 | 0.00 | 42 | 1007.2 |
| 20260507191006 | 60 | 254 | 5.0 | 18.0 | 0.00 | 0.31 | 0.00 | 44 | 1007.5 |
| 20260507190506 | 59 | 331 | 4.0 | 13.0 | 0.00 | 0.33 | 0.00 | 37 | 1007.6 |
| 20260507190031 | 59 | 332 | 6.0 | 17.0 | 0.00 | 0.35 | 0.00 | 40 | 1007.7 |
| 20260507185507 | 59 | 306 | 5.0 | 17.0 | 0.00 | 0.37 | 0.00 | 42 | 1007.7 |
| 20260507185007 | 59 | 27 | 7.0 | 17.0 | 0.00 | 0.38 | 0.00 | 42 | 1007.7 |
| 20260507184523 | 59 | 337 | 9.0 | 17.0 | 0.00 | 0.39 | 0.00 | 34 | 1007.8 |
| 20260507184006 | 59 | 27 | 8.0 | 15.0 | 0.00 | 0.40 | 0.00 | 36 | 1007.8 |
| 20260507183506 | 58 | 196 | 4.0 | 15.0 | 0.00 | 0.40 | 0.00 | 36 | 1007.8 |
| 20260507183008 | 58 | 269 | 5.0 | 14.0 | 0.00 | 0.40 | 0.00 | 43 | 1007.8 |
| 20260507182504 | 57 | 51 | 1.0 | 14.0 | 0.00 | 0.41 | 0.00 | 39 | 1007.9 |
| 20260507182008 | 57 | 282 | 8.0 | 16.0 | 0.00 | 0.42 | 0.00 | 41 | 1008.1 |
| 20260507181513 | 58 | 321 | 4.0 | 19.0 | 0.00 | 0.42 | 0.00 | 38 | 1008.1 |
| 20260507181005 | 59 | 347 | 6.0 | 19.0 | 0.00 | 0.43 | 0.00 | 39 | 1008.2 |
| 20260507180506 | 58 | 100 | 7.0 | 26.0 | 0.00 | 0.44 | 0.00 | 44 | 1008.2 |
| 20260507180018 | 59 | 44 | 10.0 | 26.0 | 0.00 | 0.45 | 0.00 | 39 | 1008.0 |
| 20260507175508 | 60 | 9 | 9.0 | 19.0 | 0.00 | 0.46 | 0.00 | 40 | 1008.0 |
| 20260507175012 | 59 | 282 | 4.0 | 16.0 | 0.00 | 0.47 | 0.00 | 42 | 1008.0 |
| 20260507174524 | 58 | 198 | 3.0 | 16.0 | 0.00 | 0.48 | 0.00 | 48 | 1008.1 |
| 20260507174011 | 58 | 30 | 5.0 | 13.0 | 0.00 | 0.49 | 0.00 | 45 | 1008.0 |
| 20260507173512 | 58 | 72 | 5.0 | 11.0 | 0.00 | 0.50 | 0.00 | 43 | 1008.0 |
| 20260507173026 | 58 | 298 | 4.0 | 17.0 | 0.00 | 0.51 | 0.00 | 40 | 1008.1 |
| 20260507172509 | 58 | 319 | 8.0 | 17.0 | 0.00 | 0.52 | 0.00 | 41 | 1008.1 |
| 20260507172011 | 58 | 238 | 2.0 | 11.0 | 0.00 | 0.52 | 0.00 | 48 | 1008.0 |
| 20260507171513 | 57 | 93 | 5.0 | 18.0 | 0.00 | 0.52 | 0.00 | 42 | 1008.0 |
| 20260507171010 | 58 | 306 | 9.0 | 18.0 | 0.00 | 0.54 | 0.00 | 43 | 1008.1 |
| 20260507170505 | 59 | 210 | 3.0 | 18.0 | 0.00 | 0.55 | 0.00 | 39 | 1008.1 |
| 20260507170016 | 59 | 53 | 7.0 | 18.0 | 0.00 | 0.56 | 0.00 | 49 | 1008.3 |
| 20260507165507 | 58 | 338 | 6.0 | 18.0 | 0.00 | 0.56 | 0.00 | 44 | 1008.6 |
| 20260507165007 | 58 | 38 | 11.0 | 18.0 | 0.00 | 0.57 | 0.00 | 43 | 1008.7 |
| 20260507164520 | 59 | 325 | 8.0 | 17.0 | 0.00 | 0.58 | 0.00 | 51 | 1008.7 |
| 20260507164009 | 58 | 309 | 3.0 | 17.0 | 0.00 | 0.58 | 0.00 | 53 | 1008.8 |
| 20260507163512 | 57 | 34 | 9.0 | 17.0 | 0.00 | 0.58 | 0.00 | 54 | 1009.0 |
| 20260507163026 | 56 | 55 | 7.0 | 13.0 | 0.00 | 0.58 | 0.00 | 47 | 1009.1 |
| 20260507162514 | 57 | 15 | 3.0 | 13.0 | 0.00 | 0.58 | 0.00 | 52 | 1009.2 |
| 20260507162009 | 57 | 23 | 5.0 | 13.0 | 0.00 | 0.60 | 0.00 | 55 | 1009.1 |
| 20260507161525 | 55 | 259 | 2.0 | 16.0 | 0.00 | 0.60 | 0.00 | 49 | 1009.2 |
| 20260507161008 | 57 | 309 | 2.0 | 19.0 | 0.00 | 0.60 | 0.00 | 43 | 1009.1 |
| 20260507160509 | 57 | 347 | 11.0 | 19.0 | 0.00 | 0.60 | 0.00 | 45 | 1009.1 |
| 20260507160021 | 58 | 20 | 7.0 | 18.0 | 0.00 | 0.60 | 0.00 | 50 | 1009.1 |
| 20260507155504 | 57 | 44 | 7.0 | 28.0 | 0.00 | 0.60 | 0.00 | 47 | 1009.1 |
| 20260507155006 | 57 | 347 | 13.0 | 28.0 | 0.00 | 0.60 | 0.00 | 43 | 1009.3 |
| 20260507154522 | 56 | 31 | 11.0 | 23.0 | 0.00 | 0.60 | 0.00 | 47 | 1009.3 |
| 20260507154011 | 56 | 69 | 11.0 | 23.0 | 0.00 | 0.60 | 0.00 | 48 | 1009.5 |
| 20260507153508 | 56 | 33 | 10.0 | 20.0 | 0.00 | 0.60 | 0.00 | 48 | 1009.7 |
| 20260507153022 | 56 | 146 | 8.0 | 20.0 | 0.00 | 0.60 | 0.00 | 46 | 1009.6 |
| 20260507152508 | 56 | 34 | 5.0 | 21.0 | 0.00 | 0.60 | 0.00 | 44 | 1009.6 |
| 20260507152013 | 55 | 24 | 13.0 | 20.0 | 0.00 | 0.60 | 0.00 | 43 | 1009.6 |
| 20260507151527 | 56 | 323 | 6.0 | 18.0 | 0.00 | 0.60 | 0.00 | 53 | 1009.7 |
| 20260507151008 | 55 | 338 | 10.0 | 21.0 | 0.00 | 0.60 | 0.00 | 48 | 1009.5 |
| 20260507150508 | 55 | 47 | 10.0 | 21.0 | 0.00 | 0.60 | 0.00 | 48 | 1009.7 |
| 20260507150027 | 55 | 61 | 11.0 | 34.0 | 0.00 | 0.60 | 0.00 | 47 | 1009.6 |
| 20260507145511 | 55 | 115 | 8.0 | 34.0 | 0.00 | 0.60 | 0.00 | 50 | 1009.7 |
| 20260507145010 | 55 | 338 | 10.0 | 23.0 | 0.00 | 0.60 | 0.00 | 49 | 1009.8 |
| 20260507144525 | 55 | 36 | 11.0 | 27.0 | 0.00 | 0.60 | 0.00 | 50 | 1009.8 |
| 20260507144005 | 54 | 17 | 10.0 | 27.0 | 0.00 | 0.60 | 0.00 | 50 | 1009.7 |
| 20260507143512 | 54 | 43 | 10.0 | 26.0 | 0.00 | 0.60 | 0.00 | 47 | 1009.7 |
| 20260507143022 | 55 | 329 | 10.0 | 21.0 | 0.00 | 0.60 | 0.00 | 46 | 1009.8 |
| 20260507142509 | 54 | 9 | 10.0 | 20.0 | 0.00 | 0.60 | 0.00 | 50 | 1009.7 |
| 20260507142010 | 54 | 330 | 11.0 | 21.0 | 0.00 | 0.60 | 0.00 | 48 | 1009.7 |
| 20260507141528 | 54 | 36 | 16.0 | 23.0 | 0.00 | 0.60 | 0.00 | 50 | 1009.6 |
| 20260507141012 | 54 | 39 | 13.0 | 28.0 | 0.00 | 0.60 | 0.00 | 54 | 1009.6 |
| 20260507140510 | 54 | 55 | 14.0 | 28.0 | 0.00 | 0.60 | 0.00 | 52 | 1009.6 |
| 20260507140032 | 54 | 332 | 15.0 | 28.0 | 0.00 | 0.60 | 0.00 | 49 | 1009.7 |
| 20260507135507 | 54 | 347 | 12.0 | 21.0 | 0.00 | 0.60 | 0.00 | 51 | 1009.7 |
| 20260507135009 | 54 | 21 | 6.0 | 14.0 | 0.00 | 0.60 | 0.00 | 56 | 1009.4 |
| 20260507134526 | 54 | 28 | 4.0 | 13.0 | 0.00 | 0.60 | 0.00 | 56 | 1009.5 |
| 20260507134001 | 53 | 323 | 4.0 | 14.0 | 0.00 | 0.60 | 0.00 | 58 | 1009.5 |
| 20260507133502 | 53 | 265 | 6.0 | 17.0 | 0.00 | 0.60 | 0.00 | 58 | 1009.6 |
| 20260507133007 | 52 | 53 | 10.0 | 18.0 | 0.00 | 0.60 | 0.00 | 54 | 1009.5 |
| 20260507132503 | 52 | 259 | 5.0 | 18.0 | 0.00 | 0.60 | 0.00 | 58 | 1009.6 |
| 20260507132001 | 52 | 338 | 5.0 | 10.0 | 0.00 | 0.60 | 0.00 | 58 | 1009.6 |
| 20260507131529 | 52 | 300 | 4.0 | 8.0 | 0.00 | 0.60 | 0.00 | 60 | 1009.5 |
| 20260507131005 | 53 | 208 | 2.0 | 9.0 | 0.00 | 0.60 | 0.00 | 62 | 1009.4 |
| 20260507130503 | 53 | 205 | 2.0 | 11.0 | 0.00 | 0.60 | 0.00 | 61 | 1009.3 |
| 20260507130019 | 53 | 254 | 6.0 | 11.0 | 0.00 | 0.60 | 0.00 | 64 | 1009.4 |
| 20260507125506 | 52 | 309 | 7.0 | 14.0 | 0.00 | 0.60 | 0.00 | 64 | 1009.3 |
| 20260507125004 | 52 | 108 | 1.0 | 14.0 | 0.00 | 0.60 | 0.00 | 64 | 1009.5 |
| 20260507124516 | 52 | 335 | 4.0 | 14.0 | 0.00 | 0.60 | 0.00 | 67 | 1009.5 |
| 20260507124007 | 51 | 20 | 5.0 | 14.0 | 0.00 | 0.60 | 0.00 | 70 | 1009.5 |
| 20260507123511 | 51 | 311 | 5.0 | 11.0 | 0.00 | 0.60 | 0.00 | 70 | 1009.5 |
| 20260507123026 | 50 | 265 | 3.0 | 12.0 | 0.00 | 0.60 | 0.00 | 74 | 1009.4 |
| 20260507122504 | 49 | 338 | 5.0 | 12.0 | 0.00 | 0.60 | 0.00 | 75 | 1009.4 |